Weather History for KBPC - January, 2014

Change the Weather History Date:

Thursday, January 23, 2014

  Actual Average (KBGD) Record (KBGD)
Temperature  
Mean Temperature 18 °F 39 °F  
Max Temperature 32 °F 52 °F 77 °F (1972)
Min Temperature 5 °F 27 °F -4 °F (1966)
Degree Days  
Heating Degree Days 46 26  
Month to date heating degree days 616  
Since 1 July heating degree days 2153  
Cooling Degree Days 0 0  
Month to date cooling degree days 0  
Year to date cooling degree days 0  
Moisture  
Dew Point 4 °F    
Average Humidity 64    
Maximum Humidity 92    
Minimum Humidity 27    
Precipitation  
Precipitation 0.00 in 0.02 in 0.12 in (1965)
Month to date precipitation 0.39  
Year to date precipitation 0.39  
Snow  
Snow 0.00 in - 1.70 in (1965)
Month to date snowfall  
Since 1 July snowfall  
Snow Depth -    
Sea Level Pressure  
Sea Level Pressure 30.59 in    
Wind  
Wind Speed 11 mph (NNE)    
Max Wind Speed 21 mph    
Max Gust Speed 32 mph    
Visibility 9 miles    
Events Snow    
T = Trace of Precipitation, MM = Missing Value Source: NWS Daily Summary

Daily Weather History Graph

Daily Weather History Graph

Search for Another Location

Airport or City:

Trip Planner

Search our weather history database for the weather conditions in past years. The results will help you decide how hot, cold, wet, or windy it might be!

Date:

Astronomy

Jan. 23, 2014 Rise Set
Actual Time 7:50 AM CST 6:01 PM CST
Civil Twilight 7:23 AM CST 6:29 PM CST
Nautical Twilight 6:51 AM CST 7:00 PM CST
Astronomical Twilight 6:21 AM CST 7:30 PM CST
Moon 12:21 AM CST (1/23) 11:41 AM CST (1/23)
Length of Visible Light 11h 06m
Length of Day
10h 11m
Waning Gibbous, 55% of the Moon is Illuminated
Jan 23
Waning Gibbous
Jan 23
Last Quarter
Jan 30
New
Feb 6
First Quarter
Feb 14
Full

Hourly Weather History & Observations

Time (CST) Temp. Windchill Dew Point Humidity Pressure Visibility Wind Dir Wind Speed Gust Speed Precip Events Conditions
12:15 AM 32.0 °F 26.4 °F 21.2 °F 64% 30.27 in 10.0 mi East 5.8 mph - N/A   Clear
12:35 AM 30.2 °F 24.3 °F 21.2 °F 69% 30.28 in 10.0 mi NE 5.8 mph - N/A   Clear
12:55 AM 28.4 °F 22.2 °F 21.2 °F 74% 30.29 in 10.0 mi NE 5.8 mph - N/A   Clear
1:15 AM 28.4 °F 22.2 °F 21.2 °F 74% 30.29 in 10.0 mi ENE 5.8 mph - N/A   Scattered Clouds
1:35 AM 28.4 °F 18.5 °F 21.2 °F 74% 30.30 in 10.0 mi NE 11.5 mph - N/A   Scattered Clouds
1:55 AM 30.2 °F 19.8 °F 21.2 °F 69% 30.31 in 10.0 mi NE 13.8 mph 19.6 mph N/A   Scattered Clouds
2:15 AM 28.4 °F 15.1 °F 17.6 °F 64% 30.33 in 10.0 mi NE 20.7 mph 32.2 mph N/A   Clear
2:35 AM 26.6 °F 13.4 °F 17.6 °F 69% 30.35 in 10.0 mi NE 18.4 mph 25.3 mph N/A   Scattered Clouds
2:55 AM 24.8 °F 11.5 °F 14.0 °F 64% 30.37 in 10.0 mi NE 17.3 mph 24.2 mph N/A   Mostly Cloudy
3:15 AM 23.0 °F 9.2 °F 14.0 °F 68% 30.37 in 10.0 mi NE 17.3 mph 24.2 mph N/A   Mostly Cloudy
3:35 AM 23.0 °F 9.6 °F 12.2 °F 63% 30.39 in 10.0 mi NE 16.1 mph 25.3 mph N/A   Mostly Cloudy
3:55 AM 23.0 °F 8.0 °F 10.4 °F 59% 30.41 in 10.0 mi NE 20.7 mph 26.5 mph N/A   Overcast
4:15 AM 21.2 °F 7.8 °F 10.4 °F 63% 30.42 in 10.0 mi NE 15.0 mph 20.7 mph N/A   Overcast
4:35 AM 19.4 °F 5.0 °F 8.6 °F 63% 30.42 in 10.0 mi NE 16.1 mph 24.2 mph N/A   Overcast
4:55 AM 19.4 °F 4.5 °F 5.0 °F 54% 30.43 in 10.0 mi NE 17.3 mph 23.0 mph N/A   Overcast
5:15 AM 19.4 °F 5.5 °F 3.2 °F 49% 30.44 in 10.0 mi NE 15.0 mph 21.9 mph N/A   Overcast
5:35 AM 17.6 °F 2.7 °F -0.4 °F 45% 30.44 in 10.0 mi NE 16.1 mph 23.0 mph N/A   Overcast
5:55 AM 17.6 °F 2.7 °F -2.2 °F 42% 30.46 in 10.0 mi NE 16.1 mph - N/A   Overcast
6:15 AM 17.6 °F 1.7 °F -0.4 °F 45% 30.48 in 10.0 mi NNE 18.4 mph 23.0 mph N/A   Overcast
6:35 AM 17.6 °F 2.7 °F -7.6 °F 32% 30.51 in 10.0 mi NE 16.1 mph - N/A   Overcast
6:55 AM 15.8 °F 3.4 °F -7.6 °F 35% 30.53 in 10.0 mi NE 10.4 mph 18.4 mph N/A   Overcast
7:15 AM 15.8 °F 0.9 °F -7.6 °F 35% 30.55 in 10.0 mi NE 15.0 mph 24.2 mph N/A   Overcast
7:35 AM 15.8 °F 1.4 °F -7.6 °F 35% 30.56 in 10.0 mi NE 13.8 mph - N/A   Overcast
7:55 AM 14.0 °F -1.4 °F -9.4 °F 35% 30.58 in 10.0 mi NE 15.0 mph 24.2 mph N/A   Overcast
8:15 AM 14.0 °F 0.5 °F -9.4 °F 35% 30.60 in 10.0 mi NE 11.5 mph 16.1 mph N/A   Overcast
8:35 AM 14.0 °F -1.4 °F -7.6 °F 38% 30.60 in 10.0 mi NE 15.0 mph - N/A   Overcast
8:55 AM 14.0 °F -2.0 °F -9.4 °F 35% 30.62 in 10.0 mi NNE 16.1 mph - N/A   Overcast
9:15 AM 14.0 °F -1.4 °F -13.0 °F 29% 30.63 in 10.0 mi NE 15.0 mph 24.2 mph N/A   Overcast
9:35 AM 14.0 °F -1.4 °F -9.4 °F 35% 30.64 in 10.0 mi NNE 15.0 mph - N/A   Mostly Cloudy
9:55 AM 14.0 °F -2.5 °F -14.8 °F 27% 30.65 in 10.0 mi NE 17.3 mph 27.6 mph N/A   Mostly Cloudy
10:15 AM 14.0 °F -2.0 °F -11.2 °F 32% 30.67 in 10.0 mi NNE 16.1 mph 19.6 mph N/A   Mostly Cloudy
10:35 AM 14.0 °F -2.0 °F -9.4 °F 35% 30.68 in 10.0 mi NNE 16.1 mph 21.9 mph N/A   Scattered Clouds
10:55 AM 14.0 °F -2.5 °F -5.8 °F 41% 30.70 in 10.0 mi NNE 17.3 mph 25.3 mph N/A   Scattered Clouds
11:15 AM 12.2 °F -3.7 °F 1.4 °F 62% 30.71 in 10.0 mi NNE 15.0 mph 19.6 mph N/A Snow Light Snow
11:35 AM 12.2 °F -2.5 °F 5.0 °F 73% 30.72 in 2.0 mi NNE 12.7 mph 17.3 mph N/A Snow Light Snow
11:55 AM 12.2 °F -3.1 °F 6.8 °F 79% 30.73 in 1.0 mi North 13.8 mph - N/A Snow Light Snow
12:15 PM 12.2 °F -3.1 °F 6.8 °F 79% 30.73 in 1.5 mi NNE 13.8 mph - N/A Snow Light Snow
12:35 PM 12.2 °F -0.2 °F 6.8 °F 79% 30.73 in 1.2 mi North 9.2 mph - N/A Snow Light Snow
12:55 PM 12.2 °F -0.2 °F 8.6 °F 85% 30.71 in 1.5 mi North 9.2 mph - N/A Snow Light Snow
1:15 PM 14.0 °F -0.2 °F 8.6 °F 79% 30.70 in 3.0 mi North 12.7 mph 18.4 mph N/A Snow Light Snow
1:35 PM 14.0 °F 0.5 °F 8.6 °F 79% 30.70 in 4.0 mi NNE 11.5 mph - N/A Snow Light Snow
1:55 PM 14.0 °F 0.5 °F 8.6 °F 79% 30.69 in 7.0 mi NNE 11.5 mph 16.1 mph N/A   Scattered Clouds
2:15 PM 14.0 °F 0.5 °F 6.8 °F 73% 30.69 in 7.0 mi North 11.5 mph - N/A   Scattered Clouds
2:35 PM 15.8 °F 1.4 °F 8.6 °F 73% 30.69 in 10.0 mi North 13.8 mph 18.4 mph N/A   Scattered Clouds
2:55 PM 15.8 °F 2.1 °F 8.6 °F 73% 30.69 in 10.0 mi North 12.7 mph - N/A   Scattered Clouds
3:15 PM 15.8 °F 4.2 °F 6.8 °F 68% 30.69 in 10.0 mi NNE 9.2 mph - N/A   Scattered Clouds
3:35 PM 15.8 °F 6.1 °F 6.8 °F 68% 30.70 in 10.0 mi North 6.9 mph - N/A   Scattered Clouds
3:55 PM 15.8 °F 3.4 °F 8.6 °F 73% 30.69 in 10.0 mi NNE 10.4 mph - N/A   Scattered Clouds
4:15 PM 15.8 °F 2.7 °F 6.8 °F 68% 30.70 in 10.0 mi North 11.5 mph - N/A   Mostly Cloudy
4:35 PM 17.6 °F 6.4 °F 6.8 °F 63% 30.69 in 10.0 mi NNE 9.2 mph - N/A   Scattered Clouds
4:55 PM 17.6 °F 5.0 °F 8.6 °F 68% 30.70 in 10.0 mi North 11.5 mph - N/A   Scattered Clouds
5:15 PM 17.6 °F 7.3 °F 6.8 °F 63% 30.70 in 10.0 mi North 8.1 mph - N/A   Scattered Clouds
5:35 PM 17.6 °F 7.3 °F 5.0 °F 58% 30.70 in 10.0 mi North 8.1 mph - N/A   Clear
5:55 PM 15.8 °F 5.1 °F 5.0 °F 62% 30.70 in 10.0 mi North 8.1 mph - N/A   Clear
6:15 PM 14.0 °F 5.1 °F 5.0 °F 67% 30.70 in 10.0 mi NNW 5.8 mph - N/A   Clear
6:35 PM 12.2 °F 2.9 °F 5.0 °F 73% 30.70 in 10.0 mi NNW 5.8 mph - N/A   Clear
6:55 PM 10.4 °F 2.2 °F 5.0 °F 79% 30.69 in 10.0 mi NW 4.6 mph - N/A   Clear
7:15 PM 10.4 °F 2.2 °F 3.2 °F 73% 30.69 in 10.0 mi NW 4.6 mph - N/A   Clear
7:35 PM 8.6 °F -1.3 °F 3.2 °F 79% 30.69 in 10.0 mi WNW 5.8 mph - N/A   Clear
7:55 PM 8.6 °F -1.3 °F 3.2 °F 79% 30.68 in 10.0 mi WNW 5.8 mph - N/A   Clear
8:15 PM 6.8 °F -4.8 °F 3.2 °F 85% 30.68 in 10.0 mi West 6.9 mph - N/A   Clear
8:55 PM 5.0 °F -5.6 °F 1.4 °F 85% 30.68 in 10.0 mi WSW 5.8 mph - N/A   Clear
9:15 PM 5.0 °F -6.9 °F 1.4 °F 85% 30.68 in 10.0 mi SW 6.9 mph - N/A   Clear
9:35 PM 5.0 °F -8.1 °F 1.4 °F 85% 30.68 in 10.0 mi WSW 8.1 mph - N/A   Clear
10:15 PM 6.8 °F -4.8 °F 3.2 °F 85% 30.67 in 10.0 mi SW 6.9 mph - N/A   Clear
10:35 PM 5.0 °F -6.9 °F 1.4 °F 85% 30.67 in 10.0 mi SW 6.9 mph - N/A   Clear
10:55 PM 5.0 °F -6.9 °F 3.2 °F 92% 30.67 in 10.0 mi SW 6.9 mph - N/A   Clear
11:15 PM 5.0 °F -6.9 °F 1.4 °F 85% 30.66 in 10.0 mi WSW 6.9 mph - N/A   Clear
11:35 PM 5.0 °F -6.9 °F 1.4 °F 85% 30.66 in 10.0 mi SW 6.9 mph - N/A   Clear
11:55 PM 5.0 °F -5.6 °F 1.4 °F 85% 30.65 in 10.0 mi SSW 5.8 mph - N/A   Clear